星链-30220 (STARLINK-30220 )

导读

STARLINK-30220是美国于2023年8月11日发射的星链卫星,星链计划是SpaceX打造的低轨卫星互联网项目,该卫星旨在为全球各地提供高速互联网接入服务,尤其服务偏远地区与网络基础设施薄弱区域,丰富了星链星座组网,进一步推进全球卫星互联网覆盖进程。

Basic Information
目录编号:
57619
目录名称:
STARLINK-30220
国际标识:
2023-119T
轨道中心:
EARTH
卫星名称:
星链-30220
卫星全名:
星链-30220 (STARLINK-30220 )
卫星状态:
已陨落 最后检测时间 2023-09-10
发射日期:
2023-08-11 UTC
国别 :
美国 (US)
星等 :
--
Orbit Information
数据来源 国际轨道数据
星历时间: 2023-09-11T02:02:18+0800
轨道信息已过期1051天
半长轴: 6556.466km
偏心率: 0.0011642
轨道倾角: 42.979°
近地点辐角 339.970°
升交点赤经 346.048°
平近点角 71.077°
近地点: 170.697km
远地点: 185.965km
周期: 88.057分钟
每日圈数: 16.353023
Detailed Information
固有亮度:
5
最大亮度:
0.3
卫星平台:
Starlink v2.0 mini
覆盖范围:
全球
运营商:
太空探索技术公司
运营商所在国:
美国
制造商(研发单位):
太空探索技术公司
制造商所在国:
美国
使用方式:
暂无
Satellite Introduction
星链(Starlink)计划是由太空探索技术公司(SpaceX)提出的一个巨型低轨卫星互联网星座项目,计划在2019年至2024年间在太空搭建由约1.2万颗卫星组成的“星链”网络,其中1584颗将部署在地球上空550千米处的近地轨道,并从2020年开始工作。该卫星已陨落。